Regional Weather Roundup
Issued by NWS

Home | Current Version | Previous Version | Text Only | Print | Product List | Glossary On
Versions: 1 2 3 4 5 6 7 8 9 10 11 12 13 14 15 16 17 18 19 20 21 22 23 24 25 26 27 28 29 30 31 32 33 34 35 36 37 38 39 40 41 42 43 44 45 46 47 48 49 50
000
ASUS43 KMKX 221321
RWRWI

WISCONSIN REGIONAL WEATHER ROUNDUP
NATIONAL WEATHER SERVICE MILWAUKEE/SULLIVAN WI
800 AM CDT SUN OCT 22 2017

NOTE: "FAIR" INDICATES FEW OR NO CLOUDS BELOW 12,000 FEET WITH NO
SIGNIFICANT WEATHER AND/OR OBSTRUCTIONS TO VISIBILITY.

WIZ001-002-006>008-014>016-023>028-221400-
NORTHWEST WISCONSIN

CITY           SKY/WX    TMP DP  RH WIND       PRES   REMARKS
SUPERIOR ARPT  CLOUDY    47  43  85 SW10      29.85R
ASHLAND        CLOUDY    49  43  80 SW12      29.86R
HAYWARD        CLOUDY    48  41  76 SW8       29.90R
SIREN          CLOUDY    47  40  77 SW7       29.92R
CUMBERLAND     CLOUDY    46  39  76 W13       29.91R
RICE LAKE      CLOUDY    48  42  79 W6        29.93R
CHETEK         CLOUDY    48  42  80 W3        29.92R
LADYSMITH      CLOUDY    49  45  86 SW5       29.93R
EAU CLAIRE     CLOUDY    49  44  83 SW6       29.93R
MENOMONIE      CLOUDY    50  43  75 W7        29.93F
NEW RICHMOND   CLOUDY    48  39  72 W6        29.94R
OSCEOLA        CLOUDY    48  41  76 SW5       29.97R
$$

WIZ003>005-009-010-017-018-221400-
NORTH CENTRAL WISCONSIN

CITY           SKY/WX    TMP DP  RH WIND       PRES   REMARKS
MANITOWISH WTR CLOUDY    48  48 100 W8        29.89R
ARBOR VITAE    DRIZZLE   52  50  94 W5        29.89R
WOODRUFF       DRIZZLE   52  50  94 W5        29.89R
RHINELANDER    CLOUDY    50  49  96 W12       29.90R
EAGLE RIVER    NOT AVBL
LAND O LAKES   CLOUDY    51  49  93 W7        29.89R
PHILLIPS       DRIZZLE   47  47  99 SW6       29.90R
TOMAHAWK       CLOUDY    49  46  92 W7        29.91R
MEDFORD        DRIZZLE   47  45  91 W8        29.91R
MERRILL        CLOUDY    51  50  97 W6        29.91R
$$

WIZ029-030-035-036-043>047-221400-
CENTRAL WISCONSIN

CITY           SKY/WX    TMP DP  RH WIND       PRES   REMARKS
WAUSAU         LGT RAIN  50  46  86 W14       29.90R
MOSINEE        CLOUDY    52  48  87 W10       29.92R
MARSHFIELD     CLOUDY    50  47  89 W8        29.92R
STEVENS POINT  CLOUDY    51  48  90 W6        29.93R
WAUPACA        CLOUDY    57  55  90 W8        29.90R
WAUTOMA        LGT RAIN N/A N/A N/A W13G18    29.93R
WISC RAPIDS    LGT RAIN  53  51  93 NW8       29.93R
CAMP DOUGLAS   MOCLDY    52  50  93 NW7       29.93
$$

WIZ011>013-019>022-031-037>040-048>050-221400-
NORTHEAST WISCONSIN

CITY           SKY/WX    TMP DP  RH WIND       PRES   REMARKS
ANTIGO         CLOUDY    51  51  99 W8        29.90R
SHAWANO        CLOUDY    66  58  76 SW7       29.86R
OCONTO         CLOUDY    61  56  83 S8        29.86R
STURGEON BAY   CLOUDY    60  54  80 S17G23    29.88S
GREEN BAY      CLOUDY    63  58  83 S10       29.87R
MANITOWOC      CLOUDY    58  53  84 S10       29.90
APPLETON       CLOUDY    64  55  72 S17       29.86R
CLINTONVILLE   CLOUDY    63  57  82 W12       29.87R
OSHKOSH        CLOUDY    64  59  83 S15G23    29.88R
$$

WIZ032>034-041-042-053>061-221400-
SOUTHWEST WISCONSIN

CITY           SKY/WX    TMP DP  RH WIND       PRES   REMARKS
LA CROSSE      CLOUDY    53  48  83 W6        29.95R
SPARTA         CLOUDY    49  48  96 W3        29.96R
VIROQUA        CLOUDY    49  49  98 NW7       29.94R
BOSCOBEL       CLOUDY    51  48  89 W5        29.95R
PRAIRIE DU CHI CLOUDY    52  46  81 NW5       29.96S
PLATTEVILLE    CLOUDY    52  52  99 NW10      29.95R
$$

WIZ056-057-062-063-064-067-068-221400-
SOUTH CENTRAL WISCONSIN

CITY           SKY/WX    TMP DP  RH WIND       PRES   REMARKS
REEDSBURG      DRIZZLE   52  52 100 W9        29.94R
BARABOO/DELLS  LGT RAIN  53  51  92 NW9       29.93R
LONE ROCK      CLOUDY    54  52  93 NW7       29.94R
MINERAL POINT  LGT RAIN  52  52 100 NW9       29.93S
MADISON        LGT RAIN  62  60  93 W5        29.89R
MIDDLETON      CLOUDY    57  57 100 NW12      29.91R
WATERTOWN      LGT RAIN  61  61 100 S8        29.89F
MONROE         DRIZZLE   59  57  94 W15       29.91R
JANESVILLE     LGT RAIN  63  63 100 S9        29.89F
$$

WIZ051-052-058>065-066-070>072-221400-
SOUTHEAST WISCONSIN

CITY           SKY/WX    TMP DP  RH WIND       PRES   REMARKS
MILWAUKEE      CLOUDY    62  57  83 S5        29.93R
WAUKESHA       CLOUDY    63  55  77 S7        29.93R
MILWAUKEE/TIMM MOCLDY    64  55  72 S6        29.92R
RACINE         CLOUDY    61  57  87 S12       29.95R
BURLINGTON     CLOUDY    65  60  83 S8        29.92S
KENOSHA        MOCLDY    67  58  72 S10       29.93R
FOND DU LAC    RAIN      63  59  87 S10       29.89R FOG
SHEBOYGAN      CLOUDY    60  56  86 S10       29.90R
WEST BEND      CLOUDY    63  59  88 S9        29.91S
JUNEAU         LGT RAIN  61  60  96 S8        29.90S
$$

LSZ147-162-221400-
LAKE SUPERIOR

STATION/POSITION TIME  TEMP    WIND        PRES    WAVE
                       AIR SEA DIR/SP/G            HT/PER
                 (UTC) (F)     (DEG/KT/KT) (MB)    (FT/S)
W MID LAKE BUOY  1250   53 52              1008.7R   5/ 6
DEVILS ISLAND    1300   52     230/ 22/ 24 1010.1R
PORT WING        1240          210/  8/ 23 1010.8
SAXON HARBOR     1240   53     190/  5/  8 1010.5R
$$

LMZ867-665-643>646-221400-
LAKE MICHIGAN

STATION/POSITION TIME  TEMP    WIND        PRES    WAVE
                       AIR SEA DIR/SP/G            HT/PER
                 (UTC) (F)     (DEG/KT/KT) (MB)    (FT/S)
S GREEN BAY BUOY 1300   62 58  170/ 16/ 17 1010.8
N MID LAKE BUOY  1250   62 58  180/ 19/ 23 1012.4R   7/ 7
NORTHPORT PIER   1240   59     160/  8/ 15 1011.9R
KEWAUNEE LAKESHO 1254   53     180/ 13/ 15 1011.8R
SHEBOYGAN LAKESH 1300   56     180/ 19/ 21 1012.6R
PORT WASHINGTON  1230   56     190/  7/ 10 1013.9S
ATWATER BUOY     1209   56 52  160/ 10/ 14 1013.1R
MILWAUKEE LAKESH 1230   56     130/  7/  8   N/A
S MID LAKE BUOY  1250   63 61  140/ 19/ 25 1014.2R   4/ 5
KENOSHA   LAKESH 1300   57     170/ 14/ 16 1013.5
$$

TC  - TEMPERATURE IN CELSIUS
VSB - VISIBILITY IN STATUTE MILES
WCI - WIND CHILL INDEX
HX  - HEAT INDEX





USA.gov is the U.S. government's official web portal to all federal, state and local government web resources and services.